sat.trackr.live / text

‹ back to catalog

STARLINK-37088

NORAD 68322 · 2026-059B

PAYLOAD ACTIVE UNKNOWN

§ Identity

Operator
Country
US
Launch date
2026-03-22
Launch site
AFETR
Launch vehicle
Mass (kg)
RCS (m²)

Purposes: comms

External: N2YO · Heavens-Above · Gunter

§ Orbital elements

Epoch: 2026-05-25T04:00:03.998880Z

Period
93.85 min
Inclination
53.1595°
Eccentricity
0.0000938
Mean motion
15.34394597 rev/d
Perigee alt
462.1 km
Apogee alt
463.4 km
Semi-major
6,840.9 km
B*
-3.5076e-4
RAAN
348.9443°
Arg perigee
104.6866°
Mean anomaly
197.4240°
Rev number
586

§ Raw data

STARLINK-370881 68322U 26059B   26145.16671295 -.00012206  00000+0 -35076-3 0  99942 68322  53.1595 348.9443 0000938 104.6866 197.4240 15.34394597  5863

JSON: /api/v1/satellites/68322 · /tle

For live sub-satellite position, see the globe view (requires WebGL).

§ Visibility from observer

Set your observer location to see the next 7 days of passes ≥ 10°. The values pass through the URL so the page stays shareable.

No JS? Fill the form by hand. The geolocation button needs JavaScript.